Temperature
13 13 13 13 13 13 13 12 12 12 12 12 12 11 11 11 11 11 11 11 11 11 11 11 11 11 11 11 11 11 11 11 11 11 11 11 11 11 11 11 11 11 11
13 13 13 12 12 12 12 12 12 12 12 12 11 11 11 11 11 11 11 11 11 11 11 11 11 10 10 10 10 11 11 11 10 10 10 10 10 10 10 10 10 11 11
12 12 12 12 12 12 12 12 12 11 11 11 11 11 11 10 10 10 10 10 10 10 10 10 10 10 10 10 10 10 10 10 10 10 10 10 10 10 10 10 10 10 10
12 12 12 12 12 11 11 11 11 11 11 11 11 11 10 10 10 10 10 10 10 10 10 10 10 10 10 9 9 9 9 9 9 10 10 9 9 9 9 9 9 10 10
11 11 11 11 11 11 11 11 11 11 11 11 11 10 10 10 10 10 10 10 10 9 9 9 9 9 9 9 9 9 9 9 9 9 9 9 9 9 9 9 9 9 9
11 11 11 11 11 11 11 11 11 11 11 10 10 10 10 10 9 9 9 9 9 9 9 9 9 9 9 9 9 8 8 8 8 8 8 8 8 8 8 8 8 8 8
11 11 11 11 11 11 11 10 10 10 10 10 10 10 9 9 9 9 9 9 9 9 9 9 9 8 8 8 8 8 8 8 8 8 8 8 8 8 7 8 8 8 8
10 10 10 10 10 10 10 10 10 10 10 10 10 9 9 9 9 9 8 8 8 8 8 8 8 8 8 8 8 8 8 8 7 7 7 7 7 7 7 7 7 7 7
10 10 10 10 10 10 10 10 10 10 10 9 9 9 9 8 8 8 8 8 8 8 8 8 8 8 7 7 7 7 7 7 7 7 7 7 7 6 6 6 6 6 6
9 9 9 9 9 9 9 9 9 9 9 9 9 9 8 8 8 7 8 8 8 7 7 7 7 7 7 7 7 7 7 6 6 6 6 6 6 6 6 6 6 6 6
9 9 9 9 9 9 9 9 9 9 9 8 8 8 8 8 7 7 7 7 7 7 7 7 7 6 6 6 6 6 6 6 6 6 6 5 5 5 5 5 5 5 5
9 9 9 9 9 9 9 8 8 8 8 8 8 8 7 7 7 6 6 6 7 7 7 6 6 6 6 5 5 5 5 5 5 5 5 5 5 5 5 5 5 5 5
9 8 8 8 8 8 8 8 8 8 8 7 7 7 7 7 6 6 6 5 5 6 6 6 6 5 5 5 5 5 5 5 5 5 4 4 4 4 5 4 4 4 4
8 8 8 8 8 8 8 8 7 7 7 7 7 7 6 6 6 6 5 5 4 5 5 5 5 5 5 4 4 4 4 4 4 4 4 4 4 4 4 4 4 4 4
8 8 7 7 7 7 7 7 7 7 7 7 6 6 6 6 5 5 5 5 4 3 4 5 5 4 4 4 4 4 4 4 3 3 4 3 3 3 3 3 3 3 3
7 7 7 7 7 7 7 7 7 6 6 6 6 6 6 5 5 5 5 4 4 3 3 4 4 4 4 3 3 3 3 3 3 3 3 3 3 3 3 3 3 3 2
7 7 7 7 7 7 6 6 6 6 6 6 6 5 5 5 5 5 4 4 4 3 3 3 4 3 3 3 3 3 3 3 2 2 2 2 2 2 2 2 2 2 2
7 7 6 6 6 6 6 6 6 6 5 5 5 5 5 4 4 4 4 4 3 3 2 3 3 3 3 3 2 2 2 2 2 2 2 2 2 2 2 2 1 1 1
6 6 6 6 6 6 6 6 5 5 5 5 5 5 4 4 4 4 3 3 3 3 2 2 2 3 2 2 2 2 2 2 2 2 1 1 1 1 1 1 1 1 1
6 6 6 6 5 5 5 5 5 5 5 5 4 4 4 4 3 3 3 3 2 2 2 2 2 2 2 2 1 1 1 1 1 1 1 1 1 1 1 0 0 0 0
6 5 5 5 5 5 5 5 4 4 4 4 4 4 3 3 3 3 2 2 2 2 1 1 1 1 1 1 1 0 0 0 1 1 1 1 0 0 0 -0 -0 -0 -0
5 5 5 5 5 4 4 4 4 4 4 4 3 3 3 3 3 2 2 2 1 1 1 1 1 1 1 0 -0 -0 -1 -1 -1 -0 -0 -0 -0 -0 -1 -1 -1 -1 -1
5 4 4 4 4 4 4 4 3 3 3 3 3 3 3 2 2 2 2 1 1 1 0 0 -0 0 -0 -0 -1 -1 -1 -2 -2 -2 -2 -1 -1 -1 -1 -1 -1 -1 -1
4 4 4 4 4 4 3 3 3 3 3 3 2 2 2 2 2 1 1 1 1 1 0 -0 -1 -1 -1 -1 -2 -2 -2 -2 -2 -2 -3 -3 -2 -2 -2 -2 -2 -2 -2
4 3 3 3 3 3 3 3 2 2 2 2 2 1 1 1 1 1 1 0 0 0 -0 -1 -1 -1 -2 -2 -2 -2 -3 -3 -3 -3 -3 -4 -3 -3 -2 -2 -2 -2 -3
3 3 3 2 2 2 2 2 2 1 1 1 1 1 1 0 0 0 -0 -0 -0 -1 -1 -1 -1 -2 -2 -2 -2 -3 -3 -4 -4 -4 -4 -4 -4 -4 -4 -3 -3 -3 -3
Wind_Speed
3 4 4 4 4 4 4 4 4 4 4 4 5 5 5 6 7 6 6 7 8 7 7 7 7 8 7 7 7 8 8 8 7 8 8 8 8 8 7 8 7 6 6
5 4 3 3 3 4 4 4 4 3 3 3 3 4 5 5 6 6 6 6 8 8 8 8 8 8 8 9 8 8 8 8 8 8 8 8 8 8 7 7 7 8 7
6 5 3 2 3 3 4 4 4 4 3 3 3 3 4 5 5 6 6 7 7 8 8 8 8 8 8 8 8 8 7 7 8 8 8 8 8 8 7 7 7 7 7
6 5 3 2 3 4 4 2 2 3 3 3 2 2 2 4 5 5 6 6 7 7 7 8 8 8 8 8 7 7 7 7 7 7 7 8 8 8 7 7 7 7 8
6 5 4 3 4 4 3 2 2 2 2 2 1 2 2 2 3 4 4 5 6 6 6 7 7 8 8 8 8 7 7 7 7 7 7 7 7 7 7 8 8 8 8
5 5 3 4 4 3 2 2 2 2 1 1 2 2 2 1 2 2 3 4 4 5 5 5 6 6 6 7 8 8 7 7 8 7 7 7 7 7 7 7 7 8 8
5 5 3 3 3 3 2 2 2 2 2 2 2 2 3 3 2 1 2 2 2 3 4 4 4 4 5 6 7 8 8 8 8 8 8 7 7 7 8 7 7 7 8
4 4 3 2 2 2 2 2 2 2 1 2 2 2 1 2 2 1 1 1 1 2 2 2 2 3 3 4 5 7 8 8 8 8 8 8 8 8 8 8 7 8 8
4 4 4 3 2 2 2 2 2 2 1 1 1 2 2 2 2 2 1 0 1 0 1 0 0 0 1 2 4 5 7 8 9 9 9 9 9 9 9 9 9 8 8
3 3 3 3 3 2 2 2 2 2 3 1 0 1 1 2 1 2 3 2 2 2 2 1 2 2 1 1 2 4 6 8 8 9 10 10 10 10 10 10 10 9 9
1 3 3 3 2 2 3 2 2 2 2 2 1 1 1 1 1 2 2 3 3 3 3 3 3 3 3 2 2 3 5 7 8 9 10 10 10 10 11 11 10 10 9
0 1 3 3 3 2 2 3 2 2 2 2 1 1 2 1 1 2 2 3 3 4 3 2 2 3 4 3 3 4 5 7 9 10 10 11 11 11 11 11 11 10 10
2 3 2 2 2 3 3 2 2 2 2 3 2 2 2 2 2 2 2 2 3 3 3 2 2 3 3 3 4 5 6 8 9 10 11 11 11 11 11 11 10 10 10
3 3 3 3 3 3 2 2 2 2 2 3 3 3 2 2 2 3 3 2 2 3 3 4 2 3 3 4 5 6 6 8 10 11 11 11 11 11 10 10 10 10 10
3 3 3 3 3 3 2 2 2 3 3 3 4 4 3 3 3 3 3 3 3 3 4 4 3 2 3 5 7 7 7 9 10 11 11 12 11 11 10 10 10 10 10
3 3 3 3 2 2 2 2 2 3 3 3 3 4 4 3 3 2 3 3 4 4 4 3 3 3 4 6 8 8 9 10 11 12 12 12 12 11 10 10 10 10 10
4 4 4 3 3 3 3 3 4 4 4 4 4 4 5 4 3 3 3 3 3 4 6 5 3 3 3 4 6 8 10 10 10 11 12 12 12 11 11 10 10 10 10
3 4 4 4 4 4 4 4 5 5 5 5 5 5 5 4 4 4 4 4 4 5 5 7 4 3 5 5 5 5 7 8 9 11 12 12 12 11 11 11 11 11 10
3 3 3 4 4 4 4 5 5 5 5 6 6 6 6 5 6 5 5 5 5 4 4 5 5 3 3 3 4 4 4 5 8 10 11 11 12 12 12 12 12 11 11
4 4 4 4 4 4 4 4 5 5 5 5 5 6 6 6 7 6 6 6 5 4 4 4 5 4 4 4 3 4 4 4 5 7 9 10 11 12 12 12 12 12 12
4 4 3 3 4 4 4 4 5 5 5 5 5 6 6 8 9 8 6 6 5 5 4 4 5 4 4 3 4 3 4 5 5 4 3 5 6 6 9 11 12 13 13
3 3 3 3 4 4 5 7 5 4 4 5 5 5 5 6 7 9 10 9 8 7 6 5 5 6 7 5 4 4 4 4 4 2 2 5 3 5 7 10 13 14 14
2 3 3 3 3 5 6 6 6 4 4 5 5 5 5 5 6 5 7 9 8 10 11 7 8 8 7 6 5 5 5 6 6 4 3 5 3 5 6 11 14 14 13
2 2 3 3 3 5 6 6 6 4 4 5 5 6 6 6 5 5 5 5 6 6 8 6 7 8 7 6 6 6 6 5 5 3 3 5 4 4 5 8 12 12 12
2 2 2 3 3 5 6 6 5 2 3 5 5 5 5 6 8 8 5 5 6 6 8 10 11 11 12 12 8 3 3 4 5 4 3 3 3 4 4 4 8 10 10
2 2 2 3 4 5 6 7 5 2 3 4 4 4 6 7 9 8 5 5 7 7 5 5 6 8 7 8 10 5 4 5 5 4 3 3 3 2 4 3 3 5 7
Wind_Direction
107 94 78 68 56 54 57 50 49 52 56 60 68 79 81 84 81 77 66 61 58 53 50 51 52 50 49 48 50 49 45 41 36 34 30 26 23 20 16 13 11 2 354
109 103 84 64 48 50 63 69 65 61 53 63 64 75 93 97 90 84 75 65 59 55 51 47 46 46 45 44 46 46 44 38 33 28 25 22 19 15 10 6 7 6 359
110 108 101 77 44 57 68 69 61 62 59 57 55 65 88 92 91 87 82 76 69 61 57 51 44 42 39 39 40 42 40 35 30 26 21 17 12 7 3 3 2 357 352
114 108 104 84 60 65 62 73 66 64 51 49 49 49 76 91 92 90 86 82 79 69 60 55 49 44 40 37 34 36 33 27 24 20 16 10 5 6 4 1 357 355 352
114 111 109 90 82 69 57 73 73 76 59 39 42 63 73 95 100 97 87 85 85 81 71 62 55 49 41 33 26 25 24 19 13 10 6 2 360 359 358 358 356 352 349
116 107 109 102 96 93 72 74 84 64 71 49 48 46 41 59 86 96 101 94 91 87 80 71 60 50 40 29 20 15 11 7 2 358 355 354 356 353 350 350 349 349 348
116 106 109 100 99 112 116 106 99 78 44 42 63 38 19 30 60 72 86 92 85 83 86 81 67 56 37 26 16 8 2 356 352 352 352 349 346 347 345 348 347 346 344
123 121 113 119 108 109 96 93 90 102 52 52 98 102 22 349 353 17 28 92 67 58 68 78 76 65 49 33 10 6 0 353 351 350 349 350 348 343 345 347 342 338 337
130 128 132 130 123 124 135 129 119 119 122 21 69 127 136 224 297 317 310 333 344 299 289 307 146 79 58 36 12 359 356 349 347 347 347 346 344 343 343 344 343 338 335
146 146 147 140 141 142 147 157 141 141 144 153 18 50 141 161 169 304 315 317 311 281 276 261 243 241 243 336 347 348 350 344 342 343 343 342 340 338 339 339 338 338 335
157 159 161 152 154 154 164 160 151 151 153 164 165 145 69 57 128 178 275 306 316 289 272 255 236 232 234 251 289 321 334 335 334 334 333 333 334 334 333 334 334 335 334
246 205 186 177 179 180 180 178 168 161 162 166 168 169 169 173 195 181 237 276 288 289 286 266 238 231 233 240 270 304 317 324 324 322 322 324 327 327 326 327 329 333 333
224 227 209 198 199 204 202 187 177 182 180 182 190 200 198 203 191 185 204 257 282 292 298 286 250 232 232 242 271 291 300 311 314 313 313 316 320 321 320 320 322 325 325
218 214 209 206 209 207 202 187 189 200 190 198 207 206 209 220 199 195 192 196 285 298 290 281 284 241 247 261 273 287 290 303 307 308 308 309 312 313 312 314 316 317 318
217 204 202 205 210 208 199 182 204 215 201 208 213 215 217 223 211 206 195 184 191 254 274 273 281 273 272 275 278 280 282 294 302 305 305 303 302 301 303 307 310 311 312
213 199 203 204 209 213 202 193 214 220 212 222 214 215 224 224 220 213 205 204 198 207 249 261 257 272 272 277 281 281 279 288 295 299 301 301 300 299 300 302 304 305 306
206 206 208 205 210 218 213 209 224 222 224 237 233 224 234 229 225 226 216 213 212 204 241 268 253 262 259 263 282 279 279 277 283 291 293 294 294 294 295 297 297 296 297
211 212 207 208 216 219 216 215 227 226 225 234 239 233 242 238 234 231 223 224 224 216 225 259 269 261 256 256 260 267 276 275 276 284 288 289 288 289 291 293 292 290 291
210 214 210 215 223 224 222 224 225 230 231 233 234 233 238 230 238 236 231 233 234 231 220 240 264 259 267 269 273 274 271 275 280 282 283 283 285 286 288 287 288 288 288
208 218 225 226 226 226 227 232 229 234 238 239 238 236 237 231 236 236 237 235 232 234 228 237 257 266 265 266 256 269 286 279 283 285 278 281 283 285 285 285 286 287 285
216 219 225 235 233 230 232 230 227 230 235 248 252 246 244 244 244 243 241 231 224 231 235 241 254 264 265 266 260 254 273 289 285 263 274 280 281 280 280 283 286 283 281
225 218 225 232 240 243 242 239 231 228 233 242 256 260 259 255 258 262 262 253 232 226 230 239 251 256 264 259 256 257 267 286 291 266 265 281 253 264 268 271 276 277 277
221 226 228 230 245 253 255 255 248 236 236 243 249 257 265 259 264 253 266 271 264 256 248 242 250 257 261 254 248 256 252 251 261 259 261 278 263 267 270 274 278 274 273
218 230 238 236 246 262 267 265 264 246 242 248 247 245 251 262 259 254 250 260 261 262 260 251 246 255 255 252 241 248 256 262 264 255 216 267 273 269 280 276 274 272 275
230 239 248 247 251 269 275 274 268 234 246 257 258 253 251 257 271 276 259 259 272 273 272 263 260 264 269 272 269 256 253 264 281 273 212 238 270 284 280 271 272 273 274
225 234 255 257 256 266 280 282 274 230 247 263 269 264 264 268 279 281 257 246 264 272 272 276 274 275 274 274 276 254 236 253 271 275 222 218 258 288 295 275 273 279 278
Height
1532 1532 1533 1533 1534 1534 1534 1535 1535 1535 1535 1535 1536 1536 1536 1536 1536 1536 1536 1536 1535 1535 1535 1534 1534 1533 1532 1532 1531 1530 1529 1528 1528 1527 1526 1525 1524 1524 1523 1523 1522 1522 1521
1530 1531 1531 1532 1532 1533 1533 1533 1534 1534 1534 1534 1534 1535 1535 1535 1535 1535 1535 1535 1534 1534 1533 1533 1533 1532 1531 1530 1529 1528 1527 1527 1526 1525 1524 1523 1522 1522 1521 1520 1520 1519 1518
1529 1529 1530 1531 1531 1532 1532 1532 1533 1533 1533 1533 1533 1534 1534 1534 1534 1534 1534 1533 1533 1533 1532 1532 1531 1531 1530 1529 1528 1527 1526 1525 1524 1523 1522 1521 1520 1520 1519 1518 1517 1516 1516
1527 1528 1528 1529 1530 1530 1531 1531 1531 1531 1532 1532 1532 1532 1533 1533 1533 1533 1533 1532 1532 1531 1531 1531 1530 1529 1528 1527 1526 1525 1524 1523 1522 1521 1520 1519 1518 1517 1516 1516 1515 1514 1513
1525 1526 1527 1528 1528 1529 1530 1530 1530 1530 1530 1531 1531 1531 1531 1531 1531 1531 1531 1531 1531 1530 1530 1529 1529 1528 1527 1526 1525 1524 1523 1522 1521 1520 1519 1517 1516 1515 1514 1513 1512 1511 1510
1523 1524 1525 1526 1527 1527 1528 1528 1529 1529 1529 1529 1529 1530 1530 1530 1530 1530 1530 1530 1530 1529 1528 1528 1527 1526 1525 1524 1523 1522 1521 1520 1519 1518 1517 1515 1514 1513 1512 1510 1509 1508 1507
1521 1522 1523 1524 1525 1526 1526 1527 1527 1527 1528 1528 1528 1528 1528 1528 1528 1529 1529 1528 1528 1527 1527 1526 1525 1524 1523 1522 1521 1520 1519 1518 1517 1515 1514 1513 1512 1511 1509 1508 1507 1505 1504
1520 1520 1521 1522 1523 1524 1524 1524 1525 1525 1526 1526 1526 1526 1526 1527 1526 1527 1527 1527 1526 1526 1525 1524 1523 1522 1521 1520 1519 1518 1517 1516 1515 1513 1512 1511 1509 1508 1507 1505 1504 1503 1501
1518 1518 1519 1520 1521 1522 1522 1522 1523 1523 1523 1524 1524 1524 1524 1524 1524 1524 1524 1524 1524 1523 1523 1522 1521 1520 1519 1518 1517 1516 1515 1514 1512 1511 1510 1508 1507 1505 1504 1503 1501 1499 1498
1516 1517 1518 1518 1519 1520 1520 1521 1521 1521 1521 1521 1522 1522 1523 1522 1522 1522 1522 1522 1521 1521 1520 1519 1519 1518 1517 1516 1515 1514 1512 1511 1510 1508 1507 1506 1504 1503 1501 1500 1498 1496 1494
1514 1515 1516 1516 1517 1517 1518 1518 1518 1519 1519 1519 1519 1520 1520 1520 1520 1520 1519 1519 1519 1518 1517 1517 1516 1515 1514 1513 1512 1511 1510 1508 1507 1506 1504 1503 1501 1499 1497 1496 1494 1493 1491
1511 1513 1513 1514 1514 1515 1516 1516 1516 1516 1516 1517 1517 1517 1517 1517 1517 1517 1516 1515 1515 1515 1514 1514 1513 1512 1511 1510 1509 1508 1507 1505 1504 1502 1501 1499 1497 1495 1494 1492 1490 1489 1487
1509 1510 1511 1511 1512 1513 1513 1513 1513 1513 1513 1514 1514 1514 1515 1515 1515 1514 1514 1512 1511 1510 1510 1510 1509 1509 1508 1507 1506 1504 1503 1502 1500 1498 1497 1495 1493 1491 1490 1488 1486 1485 1483
1507 1508 1508 1509 1509 1509 1509 1509 1510 1510 1510 1511 1511 1511 1511 1511 1511 1511 1510 1509 1508 1507 1506 1506 1505 1505 1504 1503 1502 1501 1499 1498 1496 1494 1493 1491 1489 1487 1486 1484 1482 1481 1479
1504 1505 1506 1505 1506 1506 1506 1506 1506 1507 1507 1507 1507 1508 1508 1508 1507 1507 1507 1506 1506 1504 1502 1501 1502 1501 1500 1499 1498 1497 1495 1493 1492 1490 1488 1487 1485 1483 1481 1480 1478 1476 1475
1501 1502 1502 1502 1502 1502 1502 1502 1503 1503 1503 1503 1503 1503 1503 1503 1503 1503 1503 1502 1502 1501 1499 1497 1497 1497 1496 1495 1494 1492 1491 1489 1487 1485 1484 1482 1480 1479 1477 1475 1473 1472 1470
1498 1499 1499 1499 1498 1498 1498 1499 1499 1499 1499 1499 1499 1499 1499 1499 1499 1499 1498 1498 1497 1496 1494 1493 1493 1492 1491 1490 1489 1487 1486 1484 1483 1481 1479 1477 1475 1474 1472 1471 1469 1467 1466
1495 1496 1496 1496 1495 1495 1495 1495 1495 1495 1495 1495 1495 1494 1494 1494 1494 1494 1493 1493 1492 1491 1490 1488 1487 1486 1486 1485 1483 1482 1481 1479 1478 1476 1474 1472 1471 1469 1467 1466 1464 1463 1461
1492 1492 1492 1492 1492 1491 1491 1491 1491 1491 1491 1490 1490 1490 1490 1490 1489 1489 1488 1487 1487 1486 1485 1483 1481 1481 1480 1479 1477 1476 1475 1473 1472 1470 1469 1467 1466 1464 1462 1461 1459 1458 1456
1488 1489 1489 1488 1488 1488 1487 1487 1487 1487 1486 1486 1486 1485 1485 1484 1484 1483 1482 1482 1481 1480 1479 1478 1476 1475 1474 1473 1472 1470 1468 1467 1466 1465 1463 1462 1460 1459 1457 1455 1454 1452 1451
1485 1485 1485 1484 1484 1483 1483 1483 1483 1482 1482 1481 1481 1480 1480 1479 1478 1477 1476 1476 1475 1474 1473 1472 1470 1469 1468 1468 1466 1465 1462 1461 1459 1458 1456 1456 1454 1453 1451 1450 1448 1447 1445
1481 1480 1480 1480 1480 1479 1479 1479 1478 1478 1477 1476 1476 1475 1474 1474 1472 1472 1471 1470 1470 1469 1467 1466 1465 1463 1462 1462 1461 1459 1457 1455 1453 1453 1450 1449 1448 1446 1445 1444 1442 1441 1439
1476 1476 1476 1476 1475 1475 1475 1474 1474 1473 1472 1471 1470 1470 1469 1468 1467 1466 1465 1464 1464 1463 1463 1462 1459 1458 1457 1456 1455 1453 1452 1450 1448 1447 1445 1441 1442 1440 1439 1437 1436 1435 1434
1473 1472 1472 1472 1471 1471 1470 1470 1469 1468 1467 1466 1465 1464 1463 1463 1462 1460 1459 1458 1458 1457 1457 1455 1454 1453 1452 1451 1449 1448 1446 1443 1442 1441 1440 1436 1435 1434 1433 1431 1430 1429 1428
1469 1469 1468 1468 1467 1467 1466 1465 1464 1463 1462 1461 1460 1460 1458 1457 1457 1455 1454 1453 1452 1452 1451 1449 1448 1447 1446 1445 1444 1442 1440 1438 1435 1434 1434 1432 1429 1427 1426 1425 1425 1424 1423
1465 1465 1465 1464 1464 1463 1462 1461 1459 1458 1457 1456 1456 1455 1454 1452 1452 1450 1449 1447 1446 1445 1444 1443 1442 1441 1440 1439 1438 1437 1435 1433 1430 1429 1427 1427 1425 1423 1420 1419 1419 1419 1418